CZ-6A DEB

Satellite information

Favourite Embed

Satellite Type and Status

DEBRISIN ORBIT

Key statistics

Satellite CZ-6A DEB at a glance.

Uptime

334

Days in orbit

Revolutions

≈ 14.2

Per day

Orbit

LEO

Low Earth Orbit

Inclination

88.5

Latest

Satellite identification and parameters

Extended collection of information and parameters for CZ-6A DEB.

Object identification

Identified? True

Debris? True

Object name: CZ-6A DEB

International designator: 2024-140RC

Object number (NORAD): 61158

Object ID (CCSDS): 61158

Country: PEOPLES REPUBLIC OF CHINA (PRC)

Current information (Y/N): Y

RCS size: SMALL

Orbital parameters

Period: 101.066 minutes

Inclination: 88.4984 deg

SMA: 7187.248 km

Apoapsis: 873.078 km

Periapsis: 745.148 km

RAAN: 294.0689 deg

Eccentricy: 0.0088998

Argument of periapsis: 161.147 deg

Mean anomaly: 199.3054 deg

Mean motion: 14.24816198 rev/day

Mean motion (dot): 0.0000241 rev/day2

B* drag term: 0.00098545 1/REarth

Two-line elements (TLE)

Creation date: July 4, 2025, 3:20 a.m.

Reference frame: TEME

Reference center: EARTH

Epoch: July 3, 2025, 6:36 p.m. UTC

TLE line 0: 0 CZ-6A DEB

TLE line 1: 1 61158U 24140RC 25184.77559357 .00002410 00000-0 98545-3 0 9991

TLE line 2: 2 61158 88.4984 294.0689 0088998 161.1470 199.3054 14.24816198 44951

Live tracking on map

Real-time ground track for satellite CZ-6A DEB.

In-orbit conjunctions

A list of the most updated potential collisions computed for object CZ-6A DEB.

Target Orbit TCA Probability of collision Miss distance Type
CZ-6A DEB SSO 2025-06-30 07:38:19 0.000254697 353.0 (m) DEBRIS
CZ-6A DEB LEO 2025-01-15 06:08:11 0.0001267524 493.0 (m) DEBRIS
COSMOS 2251 DEB LEO 2024-12-19 05:48:54 0.0001550887 717.0 (m) DEBRIS
METEOR 1-17 LEO 2024-11-27 18:30:35 0.0001810665 272.0 (m) PAYLOAD
FENGYUN 1C DEB SSO 2024-11-10 16:49:02 0.0006042963 102.0 (m) DEBRIS

Associated space launch

18 Low Earth Orbit communication satellites with Ku, Q and V band payloads for the G60 constellation operated by Shanghai Spacecom Satellite Technology (SSST) with funding backed by the Shanghai local government. Initial constellation will consist of 1296 satellites by 2027 with long term plans to expand it to 12000 satellites.

CZ-6A DEB was lifted into orbit during the mission ‘Long March 6A | G60 Polar Group 01’, on board a Long March 6A space rocket.

The launch took place on Aug. 6, 2024, 6:42 a.m. from Launch Complex 9A.

For more information about the launch, click the button.

Launch to space Long March 6A | G60 Polar Group 01
Long March 6A | G60 Polar Group 01

Agency: N/A

Status: Launch Successful

Launch date: Aug. 6, 2024, 6:42 a.m. UTC

Rocket: Long March 6A

Launch pad: Launch Complex 9A

Location: Taiyuan Satellite Launch Center, People's Republic of China

...

Latest news about this satellite

News about space launch
Brightness of first Chinese broadband constellation satellites alarms astronomers

The first satellites of a Chinese broadband constellation are significantly brighter than those of Western systems, posing a new challenge for astronomers.

News about space launch
Chinese rocket stage breaks up into cloud of more than 700 pieces of space debris

HELSINKI — A Chinese Long March 6A rocket’s upper stage has fragmented into a cloud of over 700 pieces of space debris, adding to concerns about long-term orbital safety. China […]

News about space launch
China's Thousand Sails Megaconstellation Kicks Off with Dangerous Debris Field

China's Thousand Sails Megaconstellation Kicks Off with Dangerous Debris Field


Newsletter sign-up

Weekly statistics, charts and insights to help you stay on top of the space industry.